| time (UTC) | temp F | wind direction | speed MPH | gust MPH | rain 1hr in | rain 24hr in | rain mn in | humidity % | barometer mb |
| 20260508121005 | 61 | 143 | 5.0 | 14.0 | 0.00 | 0.00 | 0.00 | 39 | 1021.8 |
| 20260508120008 | 61 | 149 | 6.0 | 12.0 | 0.00 | 0.00 | 0.00 | 39 | 1021.8 |
| 20260508115006 | 61 | 144 | 2.0 | 14.0 | 0.00 | 0.00 | 0.00 | 40 | 1021.8 |
| 20260508114006 | 61 | 149 | 5.0 | 12.0 | 0.00 | 0.00 | 0.00 | 37 | 1021.8 |
| 20260508113009 | 60 | 158 | 5.0 | 14.0 | 0.00 | 0.00 | 0.00 | 38 | 1021.9 |
| 20260508112006 | 60 | 152 | 8.0 | 14.0 | 0.00 | 0.00 | 0.00 | 37 | 1021.9 |
| 20260508111006 | 60 | 135 | 4.0 | 13.0 | 0.00 | 0.00 | 0.00 | 38 | 1021.9 |
| 20260508110008 | 60 | 154 | 7.0 | 15.0 | 0.00 | 0.00 | 0.00 | 37 | 1021.8 |
| 20260508105006 | 60 | 130 | 8.0 | 15.0 | 0.00 | 0.00 | 0.00 | 34 | 1021.9 |
| 20260508104005 | 60 | 132 | 5.0 | 17.0 | 0.00 | 0.00 | 0.00 | 34 | 1021.8 |
| 20260508103008 | 60 | 122 | 9.0 | 15.0 | 0.00 | 0.00 | 0.00 | 35 | 1021.8 |
| 20260508102006 | 60 | 141 | 10.0 | 17.0 | 0.00 | 0.00 | 0.00 | 38 | 1021.8 |
| 20260508101006 | 59 | 136 | 9.0 | 16.0 | 0.00 | 0.00 | 0.00 | 38 | 1021.8 |
| 20260508100008 | 59 | 149 | 9.0 | 16.0 | 0.00 | 0.00 | 0.00 | 42 | 1021.8 |
| 20260508095006 | 58 | 130 | 4.0 | 15.0 | 0.00 | 0.00 | 0.00 | 43 | 1021.8 |
| 20260508094005 | 58 | 127 | 4.0 | 16.0 | 0.00 | 0.00 | 0.00 | 48 | 1021.8 |
| 20260508093008 | 58 | 160 | 6.0 | 16.0 | 0.00 | 0.00 | 0.00 | 51 | 1021.7 |
| 20260508092006 | 58 | 123 | 6.0 | 15.0 | 0.00 | 0.00 | 0.00 | 55 | 1021.5 |
| 20260508091005 | 59 | 136 | 7.0 | 15.0 | 0.00 | 0.00 | 0.00 | 57 | 1021.5 |
| 20260508090008 | 58 | 136 | 7.0 | 17.0 | 0.00 | 0.00 | 0.00 | 57 | 1021.5 |
| 20260508085005 | 58 | 114 | 6.0 | 12.0 | 0.00 | 0.00 | 0.00 | 58 | 1021.5 |
| 20260508084005 | 58 | 121 | 4.0 | 13.0 | 0.00 | 0.00 | 0.00 | 60 | 1021.5 |
| 20260508083008 | 57 | 149 | 5.0 | 10.0 | 0.00 | 0.00 | 0.00 | 63 | 1021.4 |
| 20260508082005 | 56 | 133 | 2.0 | 12.0 | 0.00 | 0.00 | 0.00 | 64 | 1021.3 |
| 20260508081005 | 55 | 125 | 5.0 | 12.0 | 0.00 | 0.00 | 0.00 | 64 | 1021.3 |
| 20260508080008 | 55 | 75 | 0.0 | 7.0 | 0.00 | 0.00 | 0.00 | 69 | 1021.3 |
| 20260508075006 | 54 | 123 | 4.0 | 13.0 | 0.00 | 0.00 | 0.00 | 68 | 1021.2 |
| 20260508074005 | 54 | 124 | 3.0 | 9.0 | 0.00 | 0.00 | 0.00 | 71 | 1021.0 |
| 20260508073009 | 53 | 126 | 2.0 | 9.0 | 0.00 | 0.00 | 0.00 | 74 | 1021.0 |
| 20260508072006 | 52 | 111 | 2.0 | 9.0 | 0.00 | 0.00 | 0.00 | 75 | 1020.9 |
| 20260508071006 | 52 | 135 | 0.0 | 3.0 | 0.00 | 0.00 | 0.00 | 76 | 1020.9 |
| 20260508070008 | 51 | 102 | 1.0 | 3.0 | 0.00 | 0.00 | 0.00 | 77 | 1020.8 |
| 20260508065006 | 51 | 67 | 0.0 | 2.0 | 0.00 | 0.00 | 0.00 | 79 | 1020.7 |
| 20260508064005 | 50 | 73 | 0.0 | 1.0 | 0.00 | 0.00 | 0.00 | 81 | 1020.5 |
| 20260508063008 | 50 | 84 | 0.0 | 5.0 | 0.00 | 0.00 | 0.00 | 83 | 1020.4 |
| 20260508062005 | 49 | 63 | 0.0 | 2.0 | 0.00 | 0.00 | 0.00 | 85 | 1020.4 |
| 20260508061006 | 48 | 63 | 1.0 | 3.0 | 0.00 | 0.00 | 0.00 | 88 | 1020.2 |
| 20260508060008 | 48 | 41 | 0.0 | 0.0 | 0.00 | 0.00 | 0.00 | 90 | 1020.2 |
| 20260508055006 | 47 | 34 | 0.0 | 0.0 | 0.00 | 0.00 | 0.00 | 91 | 1020.2 |
| 20260508054005 | 47 | 34 | 0.0 | 0.0 | 0.00 | 0.00 | 0.00 | 91 | 1020.0 |
| 20260508053008 | 46 | 34 | 0.0 | 0.0 | 0.00 | 0.00 | 0.00 | 91 | 1020.0 |
| 20260508052006 | 46 | 34 | 0.0 | 0.0 | 0.00 | 0.00 | 0.00 | 91 | 1020.0 |
| 20260508051006 | 46 | 34 | 0.0 | 0.0 | 0.00 | 0.00 | 0.00 | 91 | 1020.0 |
| 20260508050008 | 45 | 34 | 0.0 | 0.0 | 0.00 | 0.00 | 0.00 | 91 | 1020.0 |
| 20260508045006 | 45 | 34 | 0.0 | 0.0 | 0.00 | 0.00 | 0.00 | 92 | 1019.9 |
| 20260508044006 | 44 | 34 | 0.0 | 0.0 | 0.00 | 0.00 | 0.00 | 92 | 1019.9 |
| 20260508043008 | 43 | 34 | 0.0 | 0.0 | 0.00 | 0.00 | 0.00 | 91 | 1019.9 |
| 20260508042006 | 42 | 34 | 0.0 | 0.0 | 0.00 | 0.00 | 0.00 | 91 | 1019.9 |
| 20260508041005 | 42 | 34 | 0.0 | 0.0 | 0.00 | 0.00 | 0.00 | 91 | 1019.8 |
| 20260508040015 | 41 | 34 | 0.0 | 0.0 | 0.00 | 0.00 | 0.00 | 91 | 1019.7 |
| 20260508035006 | 41 | 34 | 0.0 | 0.0 | 0.00 | 0.00 | 0.00 | 91 | 1019.6 |
| 20260508034007 | 41 | 34 | 0.0 | 0.0 | 0.00 | 0.00 | 0.00 | 90 | 1019.5 |
| 20260508033009 | 41 | 34 | 0.0 | 0.0 | 0.00 | 0.00 | 0.00 | 90 | 1019.5 |
| 20260508032007 | 42 | 34 | 0.0 | 0.0 | 0.00 | 0.00 | 0.00 | 90 | 1019.5 |
| 20260508031007 | 42 | 34 | 0.0 | 0.0 | 0.00 | 0.00 | 0.00 | 90 | 1019.4 |
| 20260508030007 | 42 | 34 | 0.0 | 0.0 | 0.00 | 0.00 | 0.00 | 90 | 1019.4 |
| 20260508025005 | 42 | 34 | 0.0 | 0.0 | 0.00 | 0.00 | 0.00 | 90 | 1019.4 |
| 20260508024005 | 41 | 34 | 0.0 | 0.0 | 0.00 | 0.00 | 0.00 | 90 | 1019.3 |
| 20260508023007 | 42 | 34 | 0.0 | 0.0 | 0.00 | 0.00 | 0.00 | 90 | 1019.3 |
| 20260508022006 | 41 | 34 | 0.0 | 0.0 | 0.00 | 0.00 | 0.00 | 89 | 1019.3 |
| 20260508021005 | 41 | 34 | 0.0 | 0.0 | 0.00 | 0.00 | 0.00 | 89 | 1019.3 |
| 20260508020008 | 41 | 34 | 0.0 | 0.0 | 0.00 | 0.00 | 0.00 | 89 | 1019.3 |
| 20260508015005 | 41 | 34 | 0.0 | 0.0 | 0.00 | 0.00 | 0.00 | 88 | 1019.3 |
| 20260508014006 | 41 | 34 | 0.0 | 0.0 | 0.00 | 0.00 | 0.00 | 88 | 1019.2 |
| 20260508013008 | 41 | 34 | 0.0 | 0.0 | 0.00 | 0.00 | 0.00 | 88 | 1019.1 |
| 20260508012006 | 41 | 34 | 0.0 | 0.0 | 0.00 | 0.00 | 0.00 | 87 | 1019.0 |
| 20260508011005 | 42 | 34 | 0.0 | 0.0 | 0.00 | 0.00 | 0.00 | 87 | 1019.1 |
| 20260508010007 | 42 | 34 | 0.0 | 0.0 | 0.00 | 0.00 | 0.00 | 88 | 1019.0 |
| 20260508005005 | 42 | 34 | 0.0 | 0.0 | 0.00 | 0.00 | 0.00 | 87 | 1018.9 |
| 20260508004006 | 42 | 34 | 0.0 | 0.0 | 0.00 | 0.00 | 0.00 | 87 | 1018.9 |
| 20260508003008 | 42 | 34 | 0.0 | 0.0 | 0.00 | 0.00 | 0.00 | 87 | 1018.9 |
| 20260508002005 | 42 | 34 | 0.0 | 0.0 | 0.00 | 0.00 | 0.00 | 87 | 1018.9 |
| 20260508001005 | 42 | 34 | 0.0 | 0.0 | 0.00 | 0.00 | 0.00 | 87 | 1018.9 |
| 20260508000008 | 42 | 34 | 0.0 | 0.0 | 0.00 | 0.00 | 0.00 | 86 | 1018.9 |
| 20260507235005 | 42 | 33 | 0.0 | 0.0 | 0.00 | 0.00 | 0.00 | 85 | 1018.8 |
| 20260507234005 | 43 | 33 | 0.0 | 0.0 | 0.00 | 0.00 | 0.00 | 85 | 1018.8 |
| 20260507233008 | 43 | 32 | 0.0 | 0.0 | 0.00 | 0.00 | 0.00 | 85 | 1018.8 |
| 20260507232005 | 43 | 32 | 0.0 | 0.0 | 0.00 | 0.00 | 0.00 | 84 | 1018.8 |
| 20260507231006 | 43 | 32 | 0.0 | 0.0 | 0.00 | 0.00 | 0.00 | 84 | 1018.7 |
| 20260507230008 | 43 | 32 | 0.0 | 0.0 | 0.00 | 0.00 | 0.00 | 83 | 1018.6 |
| 20260507225007 | 43 | 32 | 0.0 | 0.0 | 0.00 | 0.00 | 0.00 | 82 | 1018.6 |
| 20260507224005 | 43 | 32 | 0.0 | 0.0 | 0.00 | 0.00 | 0.00 | 82 | 1018.4 |
| 20260507223008 | 44 | 32 | 0.0 | 0.0 | 0.00 | 0.00 | 0.00 | 83 | 1018.3 |
| 20260507222006 | 44 | 32 | 0.0 | 0.0 | 0.00 | 0.00 | 0.00 | 83 | 1018.3 |
| 20260507221005 | 44 | 32 | 0.0 | 0.0 | 0.00 | 0.00 | 0.00 | 83 | 1018.3 |
| 20260507220008 | 44 | 32 | 0.0 | 0.0 | 0.00 | 0.00 | 0.00 | 82 | 1018.3 |
| 20260507215005 | 44 | 32 | 0.0 | 0.0 | 0.00 | 0.00 | 0.00 | 82 | 1018.3 |
| 20260507214006 | 45 | 32 | 0.0 | 0.0 | 0.00 | 0.00 | 0.00 | 83 | 1018.3 |
| 20260507213008 | 45 | 32 | 0.0 | 0.0 | 0.00 | 0.00 | 0.00 | 83 | 1018.3 |
| 20260507212006 | 45 | 32 | 0.0 | 0.0 | 0.00 | 0.00 | 0.00 | 84 | 1018.2 |
| 20260507211006 | 45 | 32 | 0.0 | 0.0 | 0.00 | 0.00 | 0.00 | 84 | 1018.2 |
| 20260507210008 | 45 | 31 | 0.0 | 1.0 | 0.00 | 0.00 | 0.00 | 83 | 1018.1 |
| 20260507205005 | 46 | 30 | 0.0 | 1.0 | 0.00 | 0.00 | 0.00 | 82 | 1017.9 |
| 20260507204005 | 46 | 23 | 0.0 | 1.0 | 0.00 | 0.00 | 0.00 | 81 | 1017.8 |
| 20260507203008 | 46 | 20 | 0.0 | 0.0 | 0.00 | 0.00 | 0.00 | 81 | 1017.7 |
| 20260507202006 | 46 | 298 | 0.0 | 0.0 | 0.00 | 0.00 | 0.00 | 79 | 1017.6 |
| 20260507201005 | 47 | 298 | 0.0 | 0.0 | 0.00 | 0.00 | 0.00 | 78 | 1017.5 |
| 20260507200008 | 47 | 298 | 0.0 | 0.0 | 0.00 | 0.00 | 0.00 | 77 | 1017.4 |
| 20260507195006 | 47 | 298 | 0.0 | 0.0 | 0.00 | 0.00 | 0.00 | 76 | 1017.3 |
| 20260507194006 | 48 | 298 | 0.0 | 0.0 | 0.00 | 0.00 | 0.00 | 76 | 1017.2 |
| 20260507193009 | 48 | 298 | 0.0 | 0.0 | 0.00 | 0.00 | 0.00 | 75 | 1017.2 |
| 20260507192005 | 49 | 298 | 0.0 | 0.0 | 0.00 | 0.00 | 0.00 | 74 | 1017.0 |
| 20260507191006 | 49 | 298 | 0.0 | 0.0 | 0.00 | 0.00 | 0.00 | 72 | 1016.9 |
| 20260507190016 | 49 | 298 | 0.0 | 0.0 | 0.00 | 0.00 | 0.00 | 70 | 1016.8 |
| 20260507185005 | 50 | 298 | 0.0 | 0.0 | 0.00 | 0.00 | 0.00 | 68 | 1016.7 |
| 20260507184006 | 51 | 298 | 0.0 | 1.0 | 0.00 | 0.00 | 0.00 | 67 | 1016.7 |
| 20260507183007 | 52 | 303 | 0.0 | 1.0 | 0.00 | 0.00 | 0.00 | 66 | 1016.7 |
| 20260507182005 | 53 | 309 | 0.0 | 2.0 | 0.00 | 0.00 | 0.00 | 64 | 1016.7 |
| 20260507181005 | 53 | 320 | 0.0 | 2.0 | 0.00 | 0.00 | 0.00 | 63 | 1016.7 |
| 20260507180007 | 53 | 323 | 0.0 | 1.0 | 0.00 | 0.00 | 0.00 | 63 | 1016.6 |
| 20260507175005 | 53 | 353 | 0.0 | 2.0 | 0.00 | 0.00 | 0.00 | 62 | 1016.6 |
| 20260507174005 | 54 | 344 | 1.0 | 3.0 | 0.00 | 0.00 | 0.00 | 62 | 1016.4 |
| 20260507173008 | 54 | 341 | 1.0 | 3.0 | 0.00 | 0.00 | 0.00 | 61 | 1016.3 |
| 20260507172005 | 54 | 354 | 2.0 | 5.0 | 0.00 | 0.00 | 0.00 | 62 | 1016.2 |
| 20260507171006 | 54 | 346 | 2.0 | 6.0 | 0.00 | 0.00 | 0.00 | 61 | 1016.2 |
| 20260507170007 | 54 | 9 | 2.0 | 7.0 | 0.00 | 0.00 | 0.00 | 60 | 1016.2 |
| 20260507165006 | 55 | 333 | 3.0 | 6.0 | 0.00 | 0.00 | 0.00 | 60 | 1016.2 |
| 20260507164006 | 55 | 359 | 2.0 | 5.0 | 0.00 | 0.00 | 0.00 | 59 | 1016.1 |
| 20260507163007 | 55 | 350 | 3.0 | 6.0 | 0.00 | 0.00 | 0.00 | 62 | 1016.1 |
| 20260507162005 | 55 | 353 | 4.0 | 7.0 | 0.00 | 0.00 | 0.00 | 62 | 1016.1 |
| 20260507161006 | 55 | 332 | 2.0 | 12.0 | 0.00 | 0.00 | 0.00 | 61 | 1016.1 |
| 20260507160008 | 55 | 4 | 3.0 | 9.0 | 0.00 | 0.00 | 0.00 | 62 | 1016.1 |
| 20260507155005 | 55 | 0 | 4.0 | 9.0 | 0.00 | 0.00 | 0.00 | 62 | 1016.0 |
| 20260507154009 | 56 | 351 | 4.0 | 9.0 | 0.00 | 0.00 | 0.00 | 60 | 1016.0 |
| 20260507153008 | 56 | 338 | 4.0 | 12.0 | 0.00 | 0.00 | 0.00 | 61 | 1016.0 |
| 20260507152005 | 56 | 340 | 5.0 | 12.0 | 0.00 | 0.00 | 0.00 | 59 | 1015.9 |
| 20260507151005 | 56 | 312 | 1.0 | 12.0 | 0.00 | 0.00 | 0.00 | 59 | 1015.7 |
| 20260507150008 | 56 | 296 | 2.0 | 13.0 | 0.00 | 0.00 | 0.00 | 59 | 1015.7 |
| 20260507145005 | 56 | 299 | 1.0 | 12.0 | 0.00 | 0.00 | 0.00 | 55 | 1015.7 |
| 20260507144005 | 56 | 308 | 2.0 | 12.0 | 0.00 | 0.00 | 0.00 | 50 | 1015.7 |
| 20260507143009 | 56 | 298 | 3.0 | 13.0 | 0.00 | 0.00 | 0.00 | 48 | 1015.7 |
| 20260507142006 | 56 | 291 | 2.0 | 12.0 | 0.00 | 0.00 | 0.00 | 49 | 1015.7 |
| 20260507141007 | 56 | 307 | 4.0 | 12.0 | 0.00 | 0.00 | 0.00 | 48 | 1015.7 |
| 20260507140009 | 56 | 302 | 2.0 | 12.0 | 0.00 | 0.00 | 0.00 | 49 | 1015.7 |
| 20260507135006 | 56 | 295 | 6.0 | 14.0 | 0.00 | 0.00 | 0.00 | 45 | 1015.7 |
| 20260507134006 | 56 | 290 | 2.0 | 9.0 | 0.00 | 0.00 | 0.00 | 48 | 1015.7 |
| 20260507133008 | 56 | 301 | 7.0 | 12.0 | 0.00 | 0.00 | 0.00 | 47 | 1015.7 |
| 20260507132006 | 56 | 292 | 3.0 | 14.0 | 0.00 | 0.00 | 0.00 | 53 | 1015.7 |
| 20260507131006 | 56 | 310 | 7.0 | 13.0 | 0.00 | 0.00 | 0.00 | 50 | 1015.7 |
| 20260507130008 | 56 | 319 | 6.0 | 12.0 | 0.00 | 0.00 | 0.00 | 49 | 1015.7 |
| 20260507125006 | 56 | 297 | 1.0 | 9.0 | 0.00 | 0.00 | 0.00 | 53 | 1015.7 |
| 20260507124006 | 56 | 284 | 5.0 | 13.0 | 0.00 | 0.00 | 0.00 | 50 | 1015.6 |
| 20260507123009 | 56 | 315 | 3.0 | 14.0 | 0.00 | 0.00 | 0.00 | 55 | 1015.6 |
| 20260507122006 | 55 | 306 | 10.0 | 14.0 | 0.00 | 0.00 | 0.00 | 57 | 1015.6 |